EW4685 Weather Reports


Display with metric or nautical units.
time (UTC)temp
F
wind
direction
speed
MPH
gust
MPH
rain 1hr
in
rain 24hr
in
rain mn
in
humidity
%
barometer
mb
20260901030036 66 347 7.0 17.0 0.00 0.00 0.00 42 1020.6
20260901025536 66 253 6.0 17.0 0.00 0.00 0.00 40 1020.7
20260901025258 66 261 5.0 13.0 0.00 0.00 0.00 44 1020.7
20260901024537 66 353 5.0 14.0 0.00 0.00 0.00 45 1020.8
20260901024036 66 306 5.0 14.0 0.00 0.00 0.00 44 1020.9
20260901023536 66 28 5.0 12.0 0.00 0.00 0.00 45 1021.0
20260901023036 66 38 4.0 14.0 0.00 0.00 0.00 45 1021.0
20260901022536 66 332 5.0 14.0 0.00 0.00 0.00 43 1021.1
20260901022033 66 250 5.0 13.0 0.00 0.00 0.00 43 1021.2
20260901021536 66 273 4.0 13.0 0.00 0.00 0.00 42 1021.4
20260901021033 66 318 4.0 10.0 0.00 0.00 0.00 44 1021.5
20260901020532 66 348 4.0 10.0 0.00 0.00 0.00 45 1021.7
20260901020032 66 258 5.0 12.0 0.00 0.00 0.00 45 1021.8
20260901020018 66 306 4.0 18.0 0.00 0.00 0.00 46 1022.0
20260901015034 66 355 4.0 18.0 0.00 0.00 0.00 47 1022.0
20260901014528 65 217 4.0 14.0 0.00 0.00 0.00 45 1022.1
20260901014033 65 248 4.0 15.0 0.00 0.00 0.00 47 1022.1
20260901013533 64 17 5.0 15.0 0.00 0.00 0.00 48 1022.3
20260901013033 64 346 6.0 19.0 0.00 0.00 0.00 49 1022.4
20260901012750 64 329 5.0 19.0 0.00 0.00 0.00 49 1022.5
20260901012033 65 322 4.0 13.0 0.00 0.00 0.00 51 1022.5
20260901011528 64 289 4.0 11.0 0.00 0.00 0.00 54 1022.7
20260901011031 64 335 4.0 11.0 0.00 0.00 0.00 54 1022.8
20260901010539 64 20 3.0 10.0 0.00 0.00 0.00 57 1023.0
20260901010532 64 327 4.0 11.0 0.00 0.00 0.00 56 1022.9
20260901005530 64 346 3.0 12.0 0.00 0.00 0.00 59 1023.1
20260901005301 63 295 3.0 12.0 0.00 0.00 0.00 61 1023.0
20260901004530 63 60 3.0 10.0 0.00 0.00 0.00 61 1023.2
20260901004030 62 358 3.0 8.0 0.00 0.00 0.00 62 1023.4
20260901003529 62 252 2.0 6.0 0.00 0.00 0.00 63 1023.4
20260901003250 61 3 2.0 9.0 0.00 0.00 0.00 64 1023.4
20260901002529 61 94 2.0 9.0 0.00 0.00 0.00 65 1023.5
20260901002029 60 62 2.0 5.0 0.00 0.00 0.00 66 1023.5
20260901001529 60 47 2.0 8.0 0.00 0.00 0.00 66 1023.7
20260901001028 60 46 2.0 8.0 0.00 0.00 0.00 66 1023.7
20260901000527 60 296 2.0 8.0 0.00 0.00 0.00 67 1023.8
20260901000030 59 332 3.0 8.0 0.00 0.00 0.00 67 1023.9
20260831235527 59 311 2.0 8.0 0.00 0.00 0.00 68 1024.0
20260831235023 59 293 2.0 8.0 0.00 0.00 0.00 69 1024.1
20260831234523 58 329 2.0 8.0 0.00 0.00 0.00 71 1024.2
20260831234025 58 17 1.0 6.0 0.00 0.00 0.00 70 1024.3
20260831233746 57 303 1.0 4.0 0.00 0.00 0.00 72 1024.4
20260831233024 57 297 1.0 4.0 0.00 0.00 0.00 72 1024.5
20260831232524 56 288 1.0 6.0 0.00 0.00 0.00 74 1024.6
20260831232025 56 319 1.0 6.0 0.00 0.00 0.00 73 1024.6
20260831231524 55 31 1.0 6.0 0.00 0.00 0.00 75 1024.6
20260831231016 55 41 1.0 6.0 0.00 0.00 0.00 75 1024.7
20260831230514 55 33 0.0 6.0 0.00 0.00 0.00 76 1024.9
20260831230223 54 87 0.0 2.0 0.00 0.00 0.00 78 1024.9
20260831225458 53 38 1.0 3.0 0.00 0.00 0.00 79 1025.1
20260831225212 53 307 1.0 4.0 0.00 0.00 0.00 80 1025.1
20260831224449 53 64 1.0 4.0 0.00 0.00 0.00 80 1025.1
20260831224258 52 59 1.0 3.0 0.00 0.00 0.00 81 1025.2
20260831222929 51 28 1.0 5.0 0.00 0.00 0.00 86 1025.2
20260831222423 50 314 0.0 2.0 0.00 0.00 0.00 88 1025.3
20260831222135 49 298 0.0 4.0 0.00 0.00 0.00 91 1025.3
20260831221411 48 76 0.0 4.0 0.00 0.00 0.00 94 1025.3
20260831220905 47 46 0.0 2.0 0.00 0.00 0.00 96 1025.3
20260831220358 45 46 0.0 0.0 0.00 0.00 0.00 96 1025.2
20260831215855 44 46 0.0 0.0 0.00 0.00 0.00 96 1025.2
20260831215349 43 46 0.0 1.0 0.00 0.00 0.00 96 1025.2
20260831214842 42 46 0.0 1.0 0.00 0.00 0.00 96 1025.3
20260831214335 42 46 0.0 1.0 0.00 0.00 0.00 96 1025.3
20260831214050 41 46 0.0 0.0 0.00 0.00 0.00 96 1025.4
20260831213548 41 46 0.0 0.0 0.00 0.00 0.00 96 1025.4
20260831212820 41 46 0.0 0.0 0.00 0.00 0.00 96 1025.4
20260831212320 40 46 0.0 0.0 0.00 0.00 0.00 96 1025.4
20260831211805 39 46 0.0 0.0 0.00 0.00 0.00 96 1025.4
20260831211259 39 46 0.0 0.0 0.00 0.00 0.00 96 1025.4
20260831210753 38 46 0.0 0.0 0.00 0.00 0.00 95 1025.3
20260831210248 38 46 0.0 0.0 0.00 0.00 0.00 95 1025.3
20260831205847 38 46 0.0 0.0 0.00 0.00 0.00 95 1025.3
20260831204729 38 46 0.0 0.0 0.00 0.00 0.00 95 1025.3
20260831204224 38 46 0.0 0.0 0.00 0.00 0.00 95 1025.3
20260831203718 38 46 0.0 0.0 0.00 0.00 0.00 95 1025.4
20260831203215 38 46 0.0 0.0 0.00 0.00 0.00 95 1025.3
20260831202705 38 46 0.0 0.0 0.00 0.00 0.00 95 1025.3
20260831202158 38 46 0.0 0.0 0.00 0.00 0.00 95 1025.4
20260831201654 38 46 0.0 0.0 0.00 0.00 0.00 95 1025.3
20260831201408 38 46 0.0 0.0 0.00 0.00 0.00 95 1025.3
20260831200643 38 46 0.0 0.0 0.00 0.00 0.00 95 1025.2
20260831200135 38 46 0.0 0.0 0.00 0.00 0.00 94 1025.2
20260831195629 38 46 0.0 0.0 0.00 0.00 0.00 95 1025.3
20260831195126 38 46 0.0 0.0 0.00 0.00 0.00 95 1025.3
20260831194618 38 46 0.0 0.0 0.00 0.00 0.00 95 1025.2
20260831194554 38 46 0.0 0.0 0.00 0.00 0.00 95 1025.2
20260831193829 38 46 0.0 0.0 0.00 0.00 0.00 95 1025.2
20260831193101 38 46 0.0 0.0 0.00 0.00 0.00 94 1025.2
20260831192553 39 46 0.0 0.0 0.00 0.00 0.00 95 1025.2
20260831192047 38 46 0.0 0.0 0.00 0.00 0.00 94 1025.2
20260831191543 38 46 0.0 0.0 0.00 0.00 0.00 94 1025.3
20260831191035 39 46 0.0 0.0 0.00 0.00 0.00 94 1025.4
20260831191019 39 46 0.0 0.0 0.00 0.00 0.00 94 1025.4
20260831190505 39 46 0.0 0.0 0.00 0.00 0.00 94 1025.5
20260831185517 39 46 0.0 0.0 0.00 0.00 0.00 94 1025.4
20260831185012 39 46 0.0 0.0 0.00 0.00 0.00 94 1025.4
20260831184505 39 46 0.0 0.0 0.00 0.00 0.00 94 1025.4
20260831183959 39 46 0.0 0.0 0.00 0.00 0.00 94 1025.5
20260831183454 39 46 0.0 0.0 0.00 0.00 0.00 94 1025.5
20260831182948 40 46 0.0 0.0 0.00 0.00 0.00 94 1025.6
20260831182441 40 46 0.0 0.0 0.00 0.00 0.00 94 1025.6
20260831181935 40 46 0.0 0.0 0.00 0.00 0.00 94 1025.6
20260831181429 40 46 0.0 0.0 0.00 0.00 0.00 94 1025.6
20260831180925 40 46 0.0 0.0 0.00 0.00 0.00 94 1025.7
20260831180416 40 46 0.0 0.0 0.00 0.00 0.00 94 1025.7
20260831175911 40 46 0.0 0.0 0.00 0.00 0.00 94 1025.8
20260831175405 40 46 0.0 0.0 0.00 0.00 0.00 94 1025.8
20260831174859 40 46 0.0 0.0 0.00 0.00 0.00 94 1025.8
20260831174355 40 46 0.0 0.0 0.00 0.00 0.00 94 1025.9
20260831173847 40 46 0.0 0.0 0.00 0.00 0.00 94 1025.9
20260831173342 40 46 0.0 0.0 0.00 0.00 0.00 94 1025.8
20260831172835 40 46 0.0 0.0 0.00 0.00 0.00 93 1025.9
20260831172329 40 46 0.0 0.0 0.00 0.00 0.00 93 1025.8
20260831171824 40 46 0.0 0.0 0.00 0.00 0.00 93 1025.9
20260831171317 40 46 0.0 0.0 0.00 0.00 0.00 93 1025.9
20260831170812 40 46 0.0 0.0 0.00 0.00 0.00 93 1025.9
20260831170305 41 46 0.0 0.0 0.00 0.00 0.00 93 1026.0
20260831165759 41 46 0.0 0.0 0.00 0.00 0.00 93 1026.0
20260831165253 41 46 0.0 0.0 0.00 0.00 0.00 93 1026.1
20260831164748 41 46 0.0 0.0 0.00 0.00 0.00 93 1026.1
20260831164242 41 46 0.0 0.0 0.00 0.00 0.00 93 1026.1
20260831163738 41 46 0.0 0.0 0.00 0.00 0.00 93 1026.3
20260831163239 41 46 0.0 0.0 0.00 0.00 0.00 93 1026.2
20260831163003 41 46 0.0 0.0 0.00 0.00 0.00 93 1026.3
20260831162234 42 46 0.0 0.0 0.00 0.00 0.00 93 1026.4
20260831161735 42 46 0.0 0.0 0.00 0.00 0.00 93 1026.4
20260831161235 42 46 0.0 0.0 0.00 0.00 0.00 92 1026.5
20260831160954 42 46 0.0 0.0 0.00 0.00 0.00 92 1026.5
20260831160232 42 46 0.0 0.0 0.00 0.00 0.00 92 1026.8
20260831155729 42 46 0.0 0.0 0.00 0.00 0.00 92 1026.6
20260831155459 42 46 0.0 0.0 0.00 0.00 0.00 91 1026.8
20260831154730 42 46 0.0 0.0 0.00 0.00 0.00 91 1026.9
20260831154229 42 46 0.0 0.0 0.00 0.00 0.00 91 1026.9
20260831153731 42 46 0.0 0.0 0.00 0.00 0.00 91 1027.0
20260831153227 42 46 0.0 0.0 0.00 0.00 0.00 91 1027.0
20260831152727 43 46 0.0 0.0 0.00 0.00 0.00 91 1027.1
20260831152227 43 46 0.0 0.0 0.00 0.00 0.00 91 1027.2
20260831151728 43 46 0.0 0.0 0.00 0.00 0.00 91 1027.2
20260831151227 43 46 0.0 0.0 0.00 0.00 0.00 90 1027.2
20260831150724 43 46 0.0 0.0 0.00 0.00 0.00 90 1027.3
20260831150223 43 46 0.0 0.0 0.00 0.00 0.00 90 1027.3
20260831145724 43 46 0.0 0.0 0.00 0.00 0.00 90 1027.3
20260831145224 44 46 0.0 0.0 0.00 0.00 0.00 90 1027.3
20260831144723 44 46 0.0 0.0 0.00 0.00 0.00 90 1027.3
20260831144224 44 46 0.0 0.0 0.00 0.00 0.00 90 1027.3
20260831143724 43 46 0.0 0.0 0.00 0.00 0.00 90 1027.3
20260831143444 44 46 0.0 0.0 0.00 0.00 0.00 89 1027.4
20260831142726 44 46 0.0 0.0 0.00 0.00 0.00 89 1027.4
20260831142223 44 46 0.0 0.0 0.00 0.00 0.00 88 1027.4
20260831141724 44 46 0.0 0.0 0.00 0.00 0.00 88 1027.3
20260831141224 44 46 0.0 0.0 0.00 0.00 0.00 88 1027.3
20260831140724 44 46 0.0 0.0 0.00 0.00 0.00 88 1027.3
20260831140224 45 46 0.0 0.0 0.00 0.00 0.00 88 1027.4
20260831135719 45 46 0.0 0.0 0.00 0.00 0.00 87 1027.4
20260831135213 45 46 0.0 0.0 0.00 0.00 0.00 88 1027.3
20260831134708 45 46 0.0 0.0 0.00 0.00 0.00 87 1027.3
20260831134424 45 46 0.0 0.0 0.00 0.00 0.00 87 1027.3
20260831134132 46 46 0.0 0.0 0.00 0.00 0.00 87 1027.3
20260831133149 46 46 0.0 0.0 0.00 0.00 0.00 86 1027.4
20260831132645 46 46 0.0 0.0 0.00 0.00 0.00 86 1027.5
20260831132137 46 46 0.0 0.0 0.00 0.00 0.00 86 1027.6
20260831131632 46 46 0.0 0.0 0.00 0.00 0.00 86 1027.6
20260831131125 47 46 0.0 0.0 0.00 0.00 0.00 86 1027.6
20260831130618 47 46 0.0 0.0 0.00 0.00 0.00 86 1027.7
20260831130113 47 46 0.0 0.0 0.00 0.00 0.00 85 1027.8
20260831125607 47 46 0.0 0.0 0.00 0.00 0.00 85 1027.9
20260831125102 47 46 0.0 0.0 0.00 0.00 0.00 85 1027.9
20260831124556 47 46 0.0 0.0 0.00 0.00 0.00 84 1028.0
20260831124053 47 46 0.0 0.0 0.00 0.00 0.00 84 1028.0
20260831123543 47 46 0.0 0.0 0.00 0.00 0.00 84 1028.0
20260831123041 48 46 0.0 0.0 0.00 0.00 0.00 83 1028.0
20260831122533 48 46 0.0 0.0 0.00 0.00 0.00 83 1028.1
20260831122026 48 46 0.0 0.0 0.00 0.00 0.00 82 1028.1
20260831121520 48 46 0.0 0.0 0.00 0.00 0.00 81 1028.1
20260831121458 48 46 0.0 0.0 0.00 0.00 0.00 80 1028.2
20260831120507 49 46 0.0 0.0 0.00 0.00 0.00 80 1028.2
20260831120001 49 46 0.0 0.0 0.00 0.00 0.00 77 1028.2
20260831115501 50 46 0.0 0.0 0.00 0.00 0.00 75 1028.2
20260831114958 50 46 0.0 0.0 0.00 0.00 0.00 75 1028.2
20260831114457 51 46 0.0 0.0 0.00 0.00 0.00 75 1028.2
20260831113955 51 46 0.0 0.0 0.00 0.00 0.00 75 1028.2
20260831113718 51 46 0.0 0.0 0.00 0.00 0.00 75 1028.2
20260831112954 51 46 0.0 0.0 0.00 0.00 0.00 75 1028.2
20260831112453 51 46 0.0 0.0 0.00 0.00 0.00 76 1028.2
20260831111951 51 46 0.0 0.0 0.00 0.00 0.00 77 1028.4
20260831111448 51 46 0.0 0.0 0.00 0.00 0.00 77 1028.4
20260831110949 51 46 0.0 0.0 0.00 0.00 0.00 77 1028.4
20260831110450 51 46 0.0 0.0 0.00 0.00 0.00 77 1028.2
20260831105948 51 46 0.0 0.0 0.00 0.00 0.00 77 1028.2
20260831105447 52 46 0.0 0.0 0.00 0.00 0.00 77 1028.2
20260831104947 52 46 0.0 0.0 0.00 0.00 0.00 76 1028.2
20260831104449 53 46 0.0 0.0 0.00 0.00 0.00 75 1028.4
20260831103952 53 46 0.0 0.0 0.00 0.00 0.00 75 1028.4
20260831103932 53 46 0.0 0.0 0.00 0.00 0.00 75 1028.4
20260831103433 54 46 0.0 0.0 0.00 0.00 0.00 74 1028.4
20260831102445 54 46 0.0 0.0 0.00 0.00 0.00 74 1028.2
20260831101946 55 46 0.0 0.0 0.00 0.00 0.00 73 1028.4
20260831101704 55 46 0.0 1.0 0.00 0.00 0.00 73 1028.2
20260831100943 55 64 0.0 2.0 0.00 0.00 0.00 73 1028.1
20260831100446 56 33 0.0 4.0 0.00 0.00 0.00 73 1028.1
20260831095942 56 22 0.0 4.0 0.00 0.00 0.00 73 1028.1
20260831095443 56 40 0.0 2.0 0.00 0.00 0.00 73 1028.1
20260831094944 56 36 0.0 3.0 0.00 0.00 0.00 73 1028.1
20260831094443 57 43 1.0 3.0 0.00 0.00 0.00 72 1028.1
20260831093949 57 35 1.0 4.0 0.00 0.00 0.00 71 1028.1
20260831093442 57 40 0.0 4.0 0.00 0.00 0.00 71 1028.1
20260831092943 57 25 0.0 2.0 0.00 0.00 0.00 71 1028.1
20260831092440 57 21 0.0 2.0 0.00 0.00 0.00 71 1028.0
20260831091940 58 39 0.0 2.0 0.00 0.00 0.00 70 1028.1
20260831091440 58 31 0.0 3.0 0.00 0.00 0.00 70 1028.1
20260831090940 58 18 0.0 3.0 0.00 0.00 0.00 69 1028.0
20260831090439 58 42 0.0 4.0 0.00 0.00 0.00 68 1028.0
20260831090159 58 33 1.0 4.0 0.00 0.00 0.00 68 1028.0
20260831085434 59 41 1.0 4.0 0.00 0.00 0.00 67 1027.9
20260831084934 59 19 1.0 4.0 0.00 0.00 0.00 67 1027.9
20260831084435 59 28 1.0 4.0 0.00 0.00 0.00 66 1027.9
20260831083932 59 8 1.0 4.0 0.00 0.00 0.00 65 1027.9
20260831083433 59 37 1.0 4.0 0.00 0.00 0.00 65 1027.9
20260831082931 60 52 0.0 3.0 0.00 0.00 0.00 64 1027.9
20260831082430 60 26 1.0 4.0 0.00 0.00 0.00 63 1027.9
20260831081928 60 34 1.0 4.0 0.00 0.00 0.00 62 1027.9
20260831081431 60 0 0.0 3.0 0.00 0.00 0.00 61 1027.8
20260831080928 60 41 1.0 4.0 0.00 0.00 0.00 60 1027.8
20260831080651 61 20 0.0 4.0 0.00 0.00 0.00 59 1027.8
20260831075928 61 344 0.0 3.0 0.00 0.00 0.00 57 1027.7
20260831075430 62 338 0.0 3.0 0.00 0.00 0.00 56 1027.6
20260831074924 62 51 0.0 3.0 0.00 0.00 0.00 55 1027.6
20260831074416 63 33 0.0 3.0 0.00 0.00 0.00 54 1027.6
20260831073915 63 19 1.0 6.0 0.00 0.00 0.00 53 1027.6
20260831073627 64 337 1.0 6.0 0.00 0.00 0.00 51 1027.6
20260831072859 64 354 1.0 5.0 0.00 0.00 0.00 50 1027.5
20260831072356 65 299 1.0 5.0 0.00 0.00 0.00 49 1027.5
20260831071854 65 299 1.0 5.0 0.00 0.00 0.00 47 1027.5
20260831071614 66 354 1.0 5.0 0.00 0.00 0.00 46 1027.4
20260831070853 66 62 1.0 5.0 0.00 0.00 0.00 44 1027.5
20260831070353 66 311 2.0 7.0 0.00 0.00 0.00 41 1027.5
20260831065855 66 36 3.0 7.0 0.00 0.00 0.00 39 1027.4
20260831065353 67 53 2.0 6.0 0.00 0.00 0.00 38 1027.4
20260831065116 67 12 2.0 8.0 0.00 0.00 0.00 37 1027.5
20260831064350 67 34 2.0 8.0 0.00 0.00 0.00 35 1027.5
20260831064117 68 27 1.0 6.0 0.00 0.00 0.00 34 1027.5
20260831063350 68 307 1.0 6.0 0.00 0.00 0.00 34 1027.5
20260831062848 68 51 2.0 7.0 0.00 0.00 0.00 34 1027.5
20260831062348 69 320 1.0 7.0 0.00 0.00 0.00 34 1027.4
20260831061849 69 14 1.0 6.0 0.00 0.00 0.00 34 1027.4
20260831061348 69 14 2.0 7.0 0.00 0.00 0.00 33 1027.4
20260831060850 69 305 2.0 7.0 0.00 0.00 0.00 31 1027.4
20260831060611 69 284 2.0 6.0 0.00 0.00 0.00 31 1027.4
20260831055845 69 348 3.0 7.0 0.00 0.00 0.00 30 1027.4
20260831055340 69 319 2.0 11.0 0.00 0.00 0.00 30 1027.4
20260831054834 70 343 1.0 11.0 0.00 0.00 0.00 30 1027.5
20260831054328 70 303 2.0 7.0 0.00 0.00 0.00 30 1027.4
20260831053824 70 303 2.0 7.0 0.00 0.00 0.00 30 1027.5
20260831053317 70 235 3.0 9.0 0.00 0.00 0.00 31 1027.4
20260831053037 70 73 3.0 10.0 0.00 0.00 0.00 31 1027.5
20260831052307 70 346 3.0 10.0 0.00 0.00 0.00 30 1027.6
20260831051758 70 38 3.0 9.0 0.00 0.00 0.00 30 1027.5
20260831051254 70 8 2.0 8.0 0.00 0.00 0.00 31 1027.6
20260831050746 70 60 2.0 8.0 0.00 0.00 0.00 30 1027.7
20260831050519 70 284 2.0 8.0 0.00 0.00 0.00 29 1027.7
20260831045734 70 320 2.0 8.0 0.00 0.00 0.00 30 1027.7
20260831045457 70 358 2.0 7.0 0.00 0.00 0.00 32 1027.7
20260831044949 70 317 2.0 7.0 0.00 0.00 0.00 34 1027.7
20260831044216 70 45 3.0 8.0 0.00 0.00 0.00 34 1027.8
20260831043715 70 32 4.0 8.0 0.00 0.00 0.00 34 1027.8
20260831043204 70 344 2.0 9.0 0.00 0.00 0.00 31 1027.8
20260831042658 70 10 1.0 9.0 0.00 0.00 0.00 31 1027.8
20260831042153 70 289 1.0 6.0 0.00 0.00 0.00 31 1027.9
20260831041915 70 324 2.0 6.0 0.00 0.00 0.00 31 1027.9
20260831041142 70 57 2.0 6.0 0.00 0.00 0.00 30 1028.0
20260831040633 70 273 2.0 9.0 0.00 0.00 0.00 31 1028.0
20260831040128 70 282 2.0 9.0 0.00 0.00 0.00 30 1028.0
20260831035624 70 54 2.0 7.0 0.00 0.00 0.00 28 1028.1
20260831035115 70 5 2.0 7.0 0.00 0.00 0.00 33 1028.2
20260831034611 69 43 2.0 5.0 0.00 0.00 0.00 33 1028.2
20260831034330 70 299 1.0 6.0 0.00 0.00 0.00 35 1028.2
20260831033557 70 317 1.0 6.0 0.00 0.00 0.00 34 1028.4
20260831033058 70 336 1.0 6.0 0.00 0.00 0.00 34 1028.4
20260831032556 70 332 1.0 6.0 0.00 0.00 0.00 35 1028.4
20260831032056 70 52 1.0 5.0 0.00 0.00 0.00 33 1028.5
20260831031556 70 339 1.0 4.0 0.00 0.00 0.00 34 1028.5
20260831031314 70 25 1.0 5.0 0.00 0.00 0.00 32 1028.7
20260831030556 69 332 1.0 5.0 0.00 0.00 0.00 32 1028.7